Theta_e
306 307 307 307 307 307 309 309 309 309 309 309 308 308 308 307 307 307 309 311 309 308 308 317 317 315 316 318 317 315 311 311 313 315 317 318 319 321 322 322 321 323 326 346 349
308 307 308 308 309 309 310 310 310 309 308 309 308 307 307 307 307 309 314 314 314 310 309 315 316 317 318 318 318 314 310 311 312 316 315 317 317 318 319 319 320 322 338 348 350
310 310 310 310 310 310 310 310 309 308 308 308 308 307 307 306 307 312 318 316 314 313 309 312 314 316 316 317 318 316 315 313 315 316 317 316 318 319 318 317 321 320 334 351 352
311 311 311 311 311 311 311 311 310 309 309 310 309 309 308 308 309 312 317 317 316 314 312 313 314 314 310 311 316 317 316 316 316 317 318 316 318 318 318 319 320 320 320 353 353
313 312 312 312 311 311 312 312 312 310 310 311 311 311 309 309 310 310 309 317 315 314 313 312 313 313 310 310 313 314 316 318 318 318 318 319 318 318 319 320 319 320 320 346 352
310 310 310 310 309 310 311 311 311 310 311 313 313 311 310 308 310 311 313 313 314 314 313 313 312 313 312 310 311 314 315 316 318 318 318 318 318 318 320 320 319 319 319 325 352
307 306 306 306 308 307 310 310 310 311 313 313 312 310 310 311 311 310 311 314 315 313 313 313 313 313 314 313 315 313 313 313 312 315 315 319 316 317 319 320 320 318 319 320 348
307 306 305 305 305 305 308 310 310 312 313 313 313 311 311 312 315 316 315 311 315 314 313 314 316 316 319 322 319 316 316 318 316 315 316 319 319 320 320 321 321 321 320 319 323
305 305 304 304 304 305 307 309 312 313 313 313 312 312 312 313 312 312 314 315 313 313 313 313 317 320 315 315 314 315 317 318 319 318 318 317 318 318 320 321 320 322 321 320 320
304 304 304 304 304 305 309 312 313 312 313 311 312 311 311 311 312 312 312 313 313 313 312 311 312 310 310 313 316 317 318 318 319 318 318 318 318 317 319 320 319 321 322 321 321
304 304 304 304 304 306 309 312 311 312 310 311 311 311 311 310 311 313 313 312 313 312 310 312 309 311 310 312 315 316 317 318 318 317 317 318 319 318 317 318 317 320 322 322 321
303 303 303 303 304 307 308 313 311 309 310 310 310 310 309 308 311 309 308 312 311 311 313 316 312 311 310 312 313 314 315 316 316 317 317 317 317 317 316 316 318 319 320 322 323
302 302 303 303 305 306 308 311 309 308 309 310 312 310 306 309 307 306 306 312 313 314 312 315 317 317 314 313 313 314 314 315 315 315 315 315 316 315 315 316 317 319 320 321 323
302 302 303 304 306 308 312 308 308 309 309 312 309 306 306 308 308 306 306 307 312 314 315 315 315 316 316 317 316 316 315 316 319 319 317 313 316 314 314 314 314 317 318 320 321
303 302 304 308 308 310 309 309 309 311 309 311 307 306 306 306 306 306 306 306 309 308 311 313 315 315 317 316 317 317 318 320 319 320 320 320 317 317 313 314 314 314 318 320 321
303 303 307 310 310 310 310 309 309 311 313 311 308 306 305 306 306 306 306 306 306 306 312 312 312 312 315 316 316 318 318 318 319 320 325 321 318 320 317 314 315 315 318 320 321
302 305 311 311 310 311 310 308 307 312 313 311 308 307 305 305 306 306 306 305 305 306 307 306 309 313 314 314 314 316 317 317 323 324 323 319 319 319 317 315 314 314 315 318 319
302 309 309 308 310 312 311 305 310 313 313 309 308 306 305 306 306 306 306 305 306 308 309 307 308 310 310 311 313 314 317 316 321 323 320 319 323 320 317 317 318 317 318 317 318
304 310 308 308 308 310 310 305 309 308 308 308 308 307 306 306 306 305 305 306 308 308 309 309 312 312 313 314 315 316 317 315 319 319 320 319 319 317 316 316 315 313 316 317 317
305 306 307 308 308 307 304 307 306 306 308 308 309 308 308 306 306 306 306 308 309 309 308 310 310 311 314 313 315 317 316 318 316 318 322 319 319 318 316 315 319 320 319 322 322
305 305 307 305 305 305 301 303 305 305 307 308 308 308 307 306 306 306 307 307 310 309 308 310 310 313 312 314 316 316 318 316 314 314 317 317 316 314 315 321 323 321 322 323 324
304 301 306 304 301 300 301 303 304 305 306 306 306 306 306 305 307 307 308 308 306 308 309 309 311 313 314 315 316 317 317 315 314 315 317 316 317 321 321 322 322 321 321 322 322
303 304 304 302 298 298 301 302 303 305 304 304 304 305 305 305 306 306 307 307 307 309 311 310 313 311 309 315 315 315 315 316 317 319 319 317 316 316 318 319 320 319 319 322 322
303 300 302 301 299 298 299 300 301 304 304 302 304 304 303 305 305 308 307 307 307 307 307 309 312 309 308 309 311 314 315 315 315 314 316 320 318 316 316 316 317 318 318 319 322
300 299 299 297 298 298 298 300 301 303 303 302 304 304 305 305 306 307 307 307 306 307 308 310 313 310 311 312 312 313 313 312 313 313 315 314 318 317 317 320 319 322 321 320 321
297 298 298 298 299 298 298 300 301 302 301 302 303 303 304 306 306 306 308 306 306 306 306 304 311 309 309 310 312 313 313 314 313 313 313 314 315 315 315 323 323 322 321 321 323
297 297 298 299 297 297 297 299 300 300 302 302 302 303 305 305 305 305 305 305 305 305 305 306 304 305 308 311 311 314 315 318 320 320 316 315 316 315 324 325 325 326 319 325 328
Wind_Speed
28 28 29 29 30 31 31 31 32 32 32 33 32 30 27 26 28 29 33 26 18 15 19 14 10 16 20 11 12 7 1 6 8 11 5 4 2 3 9 11 18 17 20 22 16
30 30 30 30 30 32 32 33 34 32 33 32 29 27 28 27 29 37 9 2 3 12 24 22 15 15 11 12 10 5 5 11 8 17 7 4 0 9 8 15 14 14 14 16 22
30 29 30 30 30 31 32 33 34 35 36 33 30 28 27 26 22 1 1 2 2 3 18 19 17 17 8 8 12 8 12 11 2 15 13 12 12 7 5 7 4 13 15 19 34
30 29 30 30 30 30 31 32 33 34 33 31 32 33 29 21 5 4 8 7 4 6 17 19 17 8 6 7 15 5 13 21 2 16 9 4 7 8 13 26 22 22 20 24 39
30 29 30 30 31 31 31 32 32 32 29 30 32 29 23 14 17 10 11 12 9 11 18 24 23 11 7 6 11 7 4 9 23 28 29 27 19 11 32 43 28 29 28 25 32
33 33 33 33 34 34 33 33 31 26 29 28 24 20 16 6 10 7 9 14 13 12 15 22 12 19 7 6 6 5 10 18 23 20 15 12 8 11 42 31 22 23 25 20 39
36 36 36 35 35 36 34 33 27 25 24 23 20 14 17 24 12 19 16 16 14 11 11 19 24 14 7 4 15 7 8 11 7 7 7 13 12 25 35 27 20 17 21 16 38
38 39 39 38 37 38 34 28 25 23 27 22 14 9 13 14 12 9 12 20 19 18 14 9 14 19 8 15 8 4 3 1 5 8 9 9 25 26 15 18 19 21 25 25 20
40 40 40 39 38 35 32 23 22 21 21 13 12 7 12 8 16 24 16 15 17 20 17 13 16 16 9 2 5 0 5 4 7 0 3 13 25 6 18 18 20 20 23 26 23
42 41 41 41 38 36 25 19 14 10 12 13 6 8 5 23 24 32 21 16 11 14 17 20 13 5 3 3 10 5 6 5 6 5 8 16 25 8 7 13 19 25 29 26 25
43 43 43 43 37 30 19 10 16 4 17 16 28 23 35 27 21 25 22 8 7 6 5 6 4 12 8 10 11 8 13 14 11 6 7 15 21 12 7 15 13 24 28 28 27
43 44 43 42 38 17 18 7 13 15 13 32 27 15 15 21 3 23 26 7 3 7 4 2 11 10 13 10 11 11 13 16 15 15 13 20 28 16 12 14 16 21 27 33 33
43 44 44 43 33 13 16 11 16 18 5 18 3 2 19 8 8 24 30 13 3 5 6 14 8 14 11 13 13 14 14 13 11 12 12 16 24 15 9 14 24 27 23 29 37
45 43 44 42 15 16 8 15 20 12 3 6 5 9 22 12 5 19 24 10 4 4 5 7 3 11 10 10 8 13 11 9 11 4 5 5 14 10 6 12 10 20 26 29 32
44 43 40 28 13 9 10 15 22 1 3 3 8 7 11 9 13 12 16 7 3 12 5 7 11 11 12 12 7 15 5 4 8 6 3 4 4 4 7 7 9 10 25 28 28
44 40 27 18 9 10 18 22 11 4 6 5 15 9 4 8 10 11 7 13 15 5 12 14 5 3 6 12 11 2 4 1 1 4 6 12 7 9 9 9 7 6 20 22 23
43 31 15 15 11 12 17 25 4 1 13 12 19 19 5 8 10 10 10 9 3 5 3 11 15 9 9 18 11 4 4 2 3 6 6 9 8 16 9 9 11 11 19 30 28
40 14 13 22 17 12 13 6 3 4 3 17 16 13 5 12 8 11 12 8 5 5 6 4 5 9 12 22 13 9 13 5 6 4 2 2 6 12 16 14 22 24 27 28 33
38 7 12 17 21 16 7 4 2 9 12 13 17 5 3 9 4 6 5 3 1 3 3 5 5 7 7 5 6 4 8 10 4 2 1 4 7 17 6 11 7 12 22 22 23
39 11 16 22 22 12 4 3 5 11 13 9 7 7 5 9 6 8 4 3 3 3 4 5 6 8 5 4 5 5 5 4 1 4 4 5 5 14 3 2 3 4 7 13 17
30 6 16 26 8 11 3 4 5 16 9 5 4 4 6 11 4 4 6 10 3 5 7 7 7 4 3 4 2 1 1 2 3 3 4 2 7 5 8 4 4 6 11 17 20
18 4 20 24 10 5 3 9 16 15 13 5 6 4 3 8 5 5 6 3 21 5 9 3 5 4 6 4 2 2 0 4 3 3 4 3 11 5 6 5 5 7 16 19 22
16 6 12 20 4 3 6 7 9 10 10 8 6 4 5 7 6 7 7 6 19 7 4 4 3 3 6 6 3 4 1 2 3 0 9 2 6 4 6 6 8 7 18 18 19
9 5 7 9 9 2 4 4 11 13 11 20 8 5 11 11 10 7 12 8 18 21 28 6 4 5 4 3 1 3 5 4 4 3 3 10 20 13 10 11 9 7 18 20 16
9 3 4 4 4 7 5 4 8 10 6 15 4 11 14 8 14 8 5 17 16 20 1 3 4 3 8 10 9 12 15 13 13 14 10 8 9 13 9 8 7 13 21 21 15
6 6 6 9 11 7 5 3 7 14 4 9 9 21 18 9 12 23 15 14 6 5 5 6 4 4 5 11 10 12 11 11 14 15 15 17 24 18 14 9 8 16 14 9 6
8 8 4 7 5 3 3 4 13 15 12 12 17 18 17 15 28 38 35 29 17 8 4 5 2 3 4 7 11 7 4 6 9 12 11 15 13 11 3 3 4 8 2 7 16
Wind_Direction
10 7 4 1 358 355 351 347 344 340 337 334 330 327 324 318 309 300 295 300 280 221 209 201 192 191 197 203 202 185 143 230 214 197 226 160 133 264 300 276 329 306 299 264 222
5 2 359 356 352 349 346 342 337 333 330 326 323 320 320 316 312 300 290 274 274 209 204 198 193 183 183 201 199 174 181 222 201 218 205 194 168 335 316 309 314 332 321 228 200
1 357 354 350 346 344 341 337 332 329 326 324 320 320 321 319 318 246 204 314 314 173 197 202 205 199 215 200 193 196 234 246 236 243 243 264 277 271 292 294 186 331 325 205 194
357 352 348 344 341 338 335 332 329 326 321 320 320 322 326 323 301 269 258 251 242 195 194 190 190 182 193 207 212 234 238 242 272 233 244 253 272 272 256 255 270 287 312 192 188
352 347 344 341 337 332 332 329 326 322 316 316 314 314 318 303 287 271 248 231 238 228 215 201 196 187 185 200 225 241 263 248 246 247 257 267 265 277 273 262 260 266 282 218 201
348 344 343 339 337 334 330 330 326 320 314 311 310 310 303 280 287 268 235 230 238 234 222 206 213 211 225 225 186 244 236 259 264 259 255 254 267 248 259 268 258 261 261 251 212
348 345 344 342 336 333 333 330 325 322 315 312 311 301 287 284 298 274 272 243 228 223 244 234 217 188 229 282 241 273 289 293 236 218 234 232 252 236 252 275 281 256 257 250 215
347 343 341 340 336 332 330 329 323 320 312 312 314 303 270 321 353 353 273 256 219 215 231 261 224 232 244 274 309 288 256 237 297 192 209 172 258 247 241 252 260 252 256 247 225
346 342 340 338 338 333 331 327 325 319 309 337 324 318 280 343 348 329 337 294 243 215 235 233 231 224 232 195 317 254 272 282 315 359 308 198 258 260 245 245 250 258 255 255 234
346 343 342 339 342 337 341 338 341 326 314 344 339 319 308 319 330 320 288 292 240 245 240 223 223 199 54 119 242 247 255 232 247 284 235 252 260 291 311 263 253 248 252 252 243
347 344 341 337 341 340 350 3 4 340 316 278 274 273 291 324 322 6 351 268 238 276 216 212 175 229 206 211 231 255 265 266 262 286 323 276 282 289 272 253 252 248 253 254 254
346 343 338 334 338 333 346 28 13 326 298 303 290 274 294 325 346 13 25 4 278 239 222 271 226 215 216 226 229 239 252 263 272 264 258 272 277 276 261 259 248 243 248 246 249
347 344 338 332 341 337 334 7 342 334 302 303 2 83 17 347 68 27 19 355 39 12 304 240 236 218 215 227 232 237 243 254 253 265 257 273 277 269 253 258 250 251 250 253 247
347 345 338 338 352 346 74 353 339 327 28 282 2 27 1 346 40 6 10 359 338 319 346 279 299 261 240 236 218 247 238 263 292 240 247 154 277 262 242 242 230 242 244 244 245
349 346 339 346 3 49 346 329 340 341 328 39 29 18 7 47 331 358 6 359 188 267 156 239 300 308 283 252 212 257 136 240 284 302 279 261 272 271 180 244 247 235 242 240 248
350 348 348 8 42 7 340 334 335 58 251 5 360 340 3 28 333 324 28 349 301 243 242 247 224 227 284 273 242 150 227 291 242 238 231 231 194 265 238 205 245 253 244 244 240
352 349 15 8 354 334 337 340 33 162 350 351 337 333 350 348 329 357 349 351 336 306 17 320 254 237 215 280 260 166 118 275 248 211 234 226 213 248 288 259 227 243 261 265 262
356 356 30 19 348 310 327 16 14 12 1 319 331 320 354 8 341 339 331 329 53 56 317 270 300 214 211 218 232 193 197 184 218 226 276 226 214 258 219 252 246 257 265 268 270
354 19 25 5 355 330 345 21 289 10 331 322 327 306 333 354 322 345 307 258 83 78 1 291 259 289 302 250 175 191 193 222 199 199 293 206 263 281 204 251 231 243 251 266 278
350 4 10 343 338 336 75 282 341 1 335 314 311 20 335 325 316 330 294 224 289 210 58 263 279 260 269 316 245 198 174 115 273 179 220 240 230 233 357 284 205 318 293 289 284
355 10 343 348 12 44 72 298 319 343 6 320 316 282 280 330 300 288 264 286 164 273 310 258 214 256 320 202 231 189 180 74 126 138 214 242 252 218 210 224 271 277 283 295 294
0 3 350 15 46 9 359 317 306 340 340 332 283 279 24 322 283 274 248 261 298 4 315 334 306 252 244 357 242 111 169 169 144 190 236 262 255 181 165 202 220 275 294 301 298
345 313 355 12 65 354 306 294 325 353 332 5 291 4 13 306 296 253 263 274 314 338 317 337 308 331 333 354 29 57 121 117 92 171 237 203 271 192 237 235 218 268 304 294 296
358 355 340 30 33 42 322 294 346 335 306 339 275 322 341 300 274 277 273 287 337 298 292 288 265 206 209 193 139 272 220 201 162 208 268 241 264 256 300 308 293 272 300 297 284
18 32 15 315 343 329 304 311 338 346 313 312 283 325 312 290 298 260 247 308 305 292 296 227 280 291 271 278 279 263 263 259 234 232 235 257 272 270 253 274 277 303 308 292 284
29 9 332 290 301 331 326 326 326 330 288 294 318 313 307 275 278 291 291 301 269 343 5 351 298 332 285 260 261 273 269 257 247 248 242 255 275 277 272 271 305 298 296 294 325
17 355 323 275 307 337 269 356 311 325 301 271 310 311 307 299 304 291 282 268 247 265 294 297 311 337 266 334 311 281 260 258 261 262 247 230 241 293 306 295 293 311 283 21 45